Location: Beekmeers
(50.8953°N, 3.6968°E)
Time: 08:09:13
(UTC+00:00)

SENTINEL 1B - Pass Details

Date: 21 October 2025
Orbit: 561 x 585 km, 98.1° (Epoch: 17 November)

Event Time Altitude Azimuth Distance (km) Brightness Sun altitude
Exits shadow 18:14:13 12° 37° (NE) 1,794 7.4 -15.5°
Drops below altitude 10° 18:14:57 10° 27° (NNE) 1,918 7.6 -15.6°
Sets 18:18:07 0° 1° (N) 2,819 8.8 -16.1°
